Location: Banksville Park
(38.5557°N, 75.1182°W)
Time: 22:30:45
(UTC+00:00)

Cosmos 1300 Rocket - Pass Details

Date: 19 September 2020
Orbit: 601 x 627 km, 82.5° (Epoch: 30 October)

Event Time Altitude Azimuth Distance (km) Brightness Sun altitude
Rises 00:42:09 0° 193° (SSW) 2,867 6.9 -19.9°
Reaches altitude 10° 00:44:22 10° 197° (SSW) 1,971 6.1 -20.3°
Maximum altitude 00:48:42 64° 278° (W) 691 4.0 -21.1°
Drops below altitude 10° 00:53:06 10° 1° (N) 2,000 6.4 -21.9°
Sets 00:55:22 0° 4° (N) 2,914 7.2 -22.3°
